Location: Auttagershofen
(48.1940°N, 10.0237°E)
Time: 18:39:17
(UTC+00:00)

Cosmos 1633 Rocket - Pass Details

Date: 18 January 2026
Orbit: 600 x 616 km, 82.5° (Epoch: 17 February)

Event Time Altitude Azimuth Distance (km) Brightness Sun altitude
Rises 06:21:48 0° 214° (SW) 2,857 6.4 -7.0°
Reaches altitude 10° 06:24:13 10° 225° (SW) 1,955 5.4 -6.6°
Maximum altitude 06:28:03 30° 288° (WNW) 1,089 3.8 -6.1°
Drops below altitude 10° 06:31:54 10° 350° (N) 1,961 5.3 -5.5°
Sets 06:34:20 0° 2° (N) 2,867 6.2 -5.1°
